RH
47 48 49 53 58 65 72 76 85 93 94 97 100 100 99 97 96 95 98 96 96 97 88 81 88 93 85 80 81 76 65 61 67 71 66 60 54 51 50 48 47 46 45 45 44 44 44 44 43 43 43 42 41 39 37 35 32 29 27 24 21 19 17 15 13 12 10 10 9 8 7 7 7 6 5 5 5 5 5 6 7 9 9 9 10 13 17 21
49 53 56 59 63 70 78 84 91 97 101 106 107 104 102 102 102 101 104 101 99 103 93 85 91 92 85 84 80 70 67 73 77 72 64 57 52 49 47 45 44 44 44 43 44 44 43 43 42 41 39 36 33 28 23 19 15 11 9 7 6 5 5 4 4 4 4 4 4 4 4 4 5 5 6 6 6 6 6 7 6 7 8 10 13 17 22 27
52 57 61 63 65 73 81 85 90 96 102 106 108 107 105 106 106 106 106 101 102 110 104 91 86 85 87 83 71 67 76 81 76 68 59 53 51 48 46 45 45 45 45 44 43 42 41 39 36 31 26 20 15 10 7 5 4 4 5 5 6 6 6 6 6 6 7 7 8 8 8 8 8 9 10 9 9 9 9 12 17 20 21 23 26 31 41 52
57 61 64 67 71 76 82 85 87 94 101 107 110 111 110 110 108 108 107 102 106 108 101 91 84 84 81 72 68 77 82 76 67 59 53 51 49 47 47 46 46 46 45 43 41 38 34 28 21 14 9 6 4 4 5 6 7 7 9 10 10 10 9 9 10 10 11 12 12 12 12 12 12 13 13 14 19 23 20 22 33 43 46 45 42 43 50 63
62 67 71 75 78 82 86 88 92 97 102 106 109 109 108 106 104 106 108 105 103 95 89 85 77 72 67 69 78 81 73 63 56 51 50 49 48 48 47 46 46 45 43 39 34 26 18 11 6 5 4 5 7 9 9 11 13 13 14 14 15 14 14 14 15 17 18 19 21 23 24 27 27 26 25 26 35 40 39 41 44 50 56 57 56 55 53 55
66 72 77 83 87 90 91 92 95 97 98 99 100 98 96 99 103 107 106 98 86 74 70 66 62 66 74 81 79 68 57 52 49 47 49 48 48 48 47 47 45 40 34 24 16 9 5 4 5 7 9 12 14 16 18 20 22 24 24 24 27 28 27 27 28 32 34 36 39 42 44 47 48 46 44 43 45 48 52 58 58 57 58 61 64 67 66 63
68 74 80 86 90 91 91 91 94 95 94 92 90 90 95 101 101 92 80 66 56 51 54 62 72 82 82 75 62 53 50 48 47 47 48 47 47 47 45 41 33 23 14 7 5 5 7 10 13 16 20 24 26 28 30 32 34 38 40 41 45 48 49 49 50 52 54 56 57 58 58 60 61 61 61 58 55 55 58 62 65 66 66 66 68 71 74 74
68 73 79 84 87 88 89 91 94 95 95 94 92 90 85 76 62 51 45 45 52 63 74 82 84 77 66 56 51 49 47 46 46 47 47 47 44 39 31 21 12 7 5 6 9 13 17 20 24 28 33 38 40 43 46 49 51 54 57 58 60 64 66 67 68 69 69 70 69 68 68 69 70 70 72 71 68 66 67 68 70 71 73 74 74 74 75 75
68 72 77 81 84 85 87 89 92 94 93 88 76 62 47 39 38 46 57 71 83 89 87 79 67 57 51 48 47 47 47 46 46 45 42 35 26 17 10 6 6 8 11 16 21 25 30 34 39 43 49 53 55 57 59 61 62 64 69 71 72 74 76 78 78 79 79 80 81 79 77 79 80 79 79 79 78 76 75 76 77 79 81 82 83 83 82 81
66 70 73 77 79 79 80 80 78 73 64 54 44 41 44 54 66 77 85 88 85 78 67 57 51 47 46 45 46 47 46 42 37 29 21 13 8 6 7 10 15 20 25 30 35 40 44 49 55 58 61 65 67 70 71 72 72 71 75 76 76 77 79 82 83 84 85 86 86 82 79 81 83 83 83 83 84 84 84 85 85 87 90 91 93 93 93 92
60 62 63 64 63 61 59 54 50 46 45 49 56 67 77 83 85 84 78 70 61 54 49 46 45 44 44 44 44 41 32 23 16 9 7 7 10 14 19 24 30 36 41 45 50 55 59 63 68 71 73 75 75 76 76 76 75 74 75 78 83 87 88 89 90 92 92 92 91 86 80 80 83 83 83 82 83 85 86 87 86 86 87 89 91 92 93 93
45 45 45 44 43 43 43 45 50 57 67 76 83 85 82 77 71 63 56 50 46 44 43 43 42 41 37 33 26 19 12 8 7 9 13 18 24 30 34 39 45 50 55 60 65 70 73 74 76 77 76 75 76 77 78 81 84 88 90 92 97 100 100 100 100 99 99 100 99 96 88 86 90 93 93 92 91 92 92 93 92 89 88 86 86 86 86 86
34 36 37 40 44 49 56 63 71 77 80 79 74 68 60 54 49 45 43 41 40 38 38 35 30 24 18 13 9 7 8 12 17 21 26 32 38 44 49 54 60 66 69 72 74 76 76 76 75 76 77 79 85 90 95 98 102 104 105 105 105 104 103 103 105 104 103 103 103 103 99 97 100 102 102 102 102 101 101 102 102 100 99 96 94 92 89 88
39 43 48 53 58 63 66 69 69 66 61 55 50 45 42 40 38 36 34 31 29 25 21 16 11 8 7 8 10 14 20 26 31 36 41 48 54 60 64 68 70 72 73 74 75 76 78 79 82 86 90 95 101 104 106 108 108 107 106 104 103 102 100 99 100 100 99 97 96 98 98 96 98 100 100 101 102 103 103 103 103 103 105 105 104 103 101 100
48 50 53 54 55 55 54 51 48 43 40 38 36 35 32 29 26 22 18 15 12 8 6 6 7 10 14 18 22 28 35 42 49 54 59 64 66 69 70 71 72 74 76 78 82 86 89 92 94 97 99 99 99 97 95 94 91 89 86 83 79 78 76 73 72 71 71 70 68 68 68 67 69 71 73 75 77 80 82 84 85 87 90 93 95 96 97 98
40 40 39 39 38 37 36 34 32 31 30 28 25 21 16 13 9 7 6 5 5 7 10 13 18 24 29 35 40 46 52 58 61 63 64 65 66 69 72 76 79 82 84 86 87 88 88 87 86 84 81 77 73 70 66 63 60 58 54 53 51 50 49 49 46 44 44 43 42 41 40 40 40 40 41 42 43 44 46 47 49 51 54 57 59 62 65 67
25 26 26 26 26 26 25 24 22 19 16 13 10 7 5 5 5 6 7 10 13 18 24 30 37 43 48 52 54 57 59 60 60 62 65 68 72 75 79 80 80 79 77 75 73 70 68 65 63 59 56 53 50 48 46 44 43 42 41 40 41 40 38 39 40 40 39 38 36 35 34 33 33 33 34 33 32 31 31 31 32 32 32 33 33 35 36 37
18 18 18 17 16 15 13 12 9 8 6 5 5 5 7 9 11 15 19 24 30 36 43 48 51 54 55 56 56 57 60 62 65 70 73 74 75 74 74 71 67 63 60 57 54 51 49 46 43 42 40 38 38 37 37 38 38 40 42 43 45 47 45 45 47 49 50 48 45 44 42 40 40 40 40 39 37 36 35 35 34 34 33 33 32 32 32 32
9 9 8 8 8 6 6 6 5 5 6 8 10 13 17 21 27 32 37 42 46 49 52 53 54 55 56 59 60 61 64 67 68 69 68 66 64 61 59 56 52 48 44 41 39 37 36 35 35 36 37 38 39 41 42 44 45 45 46 47 48 49 48 46 45 44 44 43 41 40 38 37 36 35 34 33 31 30 29 29 28 28 28 27 27 28 28 28
5 5 5 5 5 6 6 6 8 9 12 17 23 29 34 39 44 47 49 50 51 53 54 56 59 59 60 61 61 61 61 60 59 56 53 50 48 45 42 39 37 35 34 34 35 37 38 40 42 44 46 47 47 47 47 46 44 42 40 39 37 35 34 33 31 30 29 28 28 27 26 25 25 24 23 23 22 21 20 20 19 18 18 18 18 18 18 17
5 6 6 7 7 9 10 12 16 20 25 31 37 43 46 48 50 51 53 53 54 56 57 59 60 59 58 56 54 53 50 48 45 41 38 37 35 34 34 34 35 37 40 43 45 47 47 47 47 47 45 43 40 38 35 33 31 29 28 27 26 25 25 25 24 24 23 23 23 22 21 22 21 21 21 21 20 20 20 19 19 19 18 17 17 16 16 16
8 8 9 11 13 16 19 23 28 32 37 40 44 47 49 51 53 54 57 57 56 56 56 55 53 52 50 47 44 41 38 35 33 32 33 34 37 40 42 44 46 47 48 48 47 45 43 41 38 35 32 29 28 26 25 25 24 24 24 23 23 23 23 23 23 23 22 22 22 21 20 20 19 19 19 19 19 19 18 18 18 18 17 16 16 15 15 15
13 16 19 21 24 28 31 35 38 42 44 46 48 50 51 53 55 56 55 55 54 52 50 47 43 41 38 35 33 30 30 31 33 37 40 43 47 49 49 48 46 44 41 39 36 34 31 29 27 25 24 24 24 24 24 24 23 23 22 21 21 21 20 20 21 22 22 21 21 20 20 21 21 20 20 21 21 20 19 18 16 16 16 15 14 14 13 14
25 29 32 35 38 40 42 45 46 47 47 48 49 51 52 53 54 53 50 49 47 43 40 37 33 31 28 28 28 31 35 40 46 49 48 47 47 45 42 39 35 32 30 28 26 25 24 24 24 23 23 23 23 23 23 24 23 23 22 22 22 22 22 22 22 24 25 25 24 23 24 24 24 24 25 26 26 25 23 21 19 17 16 16 15 14 14 14
38 41 43 45 47 47 48 48 47 47 48 48 49 50 51 49 48 45 42 39 35 33 30 27 26 26 29 34 38 43 47 48 49 46 43 40 37 34 31 29 27 26 25 24 23 23 24 24 25 24 24 23 23 23 24 25 26 26 26 27 27 27 27 26 26 27 28 29 27 26 26 26 27 29 31 31 30 28 26 24 23 20 19 18 16 16 15 14
47 48 49 49 48 47 47 46 46 47 46 45 45 44 42 40 38 35 32 30 27 26 25 27 33 39 44 48 48 48 46 43 40 36 34 31 28 27 25 24 25 24 24 25 24 25 26 27 27 26 25 25 26 26 27 28 29 29 30 30 30 30 31 31 32 32 33 34 33 31 29 28 30 32 32 33 31 29 28 26 24 22 20 19 19 18 17 17
50 49 47 45 44 44 44 43 43 41 38 37 36 35 34 32 30 28 27 25 24 28 34 41 48 51 50 47 44 40 36 34 31 29 27 25 24 24 24 25 26 26 28 27 26 27 27 28 29 29 29 29 29 30 31 31 31 32 32 32 33 34 34 35 36 37 36 38 38 34 32 30 29 32 32 31 30 28 27 26 23 23 22 21 21 20 20 19
45 44 43 41 41 41 39 37 35 33 33 32 31 30 29 27 25 24 24 25 31 41 47 48 48 46 42 38 35 31 30 28 26 25 24 24 25 26 27 28 28 29 30 29 28 29 31 33 34 34 33 33 32 32 32 32 32 32 32 33 33 33 35 35 35 36 36 38 39 33 32 30 27 30 31 27 26 25 24 23 22 22 22 22 21 20 20 19
42 40 39 38 37 35 34 33 32 32 31 29 27 26 23 22 24 26 30 36 44 49 47 44 41 37 33 30 28 26 25 24 23 24 25 27 28 29 30 31 31 31 31 31 32 33 36 38 38 36 35 35 34 33 33 33 33 34 34 35 35 34 35 36 37 38 38 44 47 39 35 33 28 31 33 27 24 23 22 22 21 21 20 20 19 18 18 18
40 38 36 35 34 33 32 31 30 28 26 24 23 22 23 27 30 34 39 44 47 44 40 36 32 29 26 25 24 23 22 23 24 26 27 30 31 32 34 36 38 37 36 36 37 38 39 38 37 36 34 34 35 36 36 37 37 37 38 40 42 42 42 44 47 47 47 53 57 49 41 38 31 28 29 25 22 20 19 19 17 17 16 14 14 15 15 15
37 35 35 33 32 31 30 28 26 24 23 22 22 26 32 35 36 40 43 43 40 36 32 28 25 23 22 22 21 22 24 26 28 30 32 34 37 39 41 43 44 44 43 41 39 37 35 35 36 35 35 37 40 42 43 44 46 47 47 46 45 44 44 45 46 46 46 48 50 43 35 33 28 22 20 19 17 16 15 14 13 12 12 12 13 12 12 12
34 34 32 30 29 28 26 24 23 22 22 24 30 36 39 38 39 41 41 37 32 28 25 23 22 21 21 23 25 26 28 30 33 35 37 39 41 41 41 40 40 40 41 42 41 39 39 42 44 43 43 43 44 46 47 49 50 50 47 43 38 35 33 33 32 32 32 33 35 31 23 22 21 17 17 15 14 13 12 11 10 10 11 11 10 10 10 10
32 30 28 27 26 24 23 22 21 22 27 34 39 39 37 38 40 38 33 28 25 22 21 21 22 23 24 27 29 30 32 35 37 37 38 39 38 37 37 37 38 40 42 44 47 49 52 55 56 52 47 45 44 43 41 41 41 40 38 34 31 28 24 24 22 21 20 22 27 27 21 20 19 16 17 15 13 12 11 10 9 9 9 8 7 7 7 7
28 26 25 25 23 22 21 21 23 29 37 41 39 36 36 38 35 29 25 23 21 21 23 24 25 27 30 32 33 36 37 37 38 37 36 36 36 37 39 40 42 45 48 51 55 57 57 55 52 49 45 46 48 46 44 43 40 38 37 34 33 31 28 26 24 22 19 18 22 23 21 20 18 15 14 12 11 10 9 8 8 7 7 6 6 6 6 5
25 25 24 23 21 21 22 25 33 40 43 40 36 36 36 32 27 24 22 22 23 24 26 28 29 32 34 35 36 38 38 38 38 36 36 36 37 39 40 43 46 49 52 54 55 60 65 61 53 51 49 49 53 52 49 47 43 41 39 37 36 34 32 31 29 27 24 20 20 18 17 19 18 14 11 10 9 9 8 7 7 6 5 5 5 5 5 4
25 24 22 21 23 25 28 36 43 44 40 37 36 34 30 25 23 22 22 24 25 27 29 32 34 35 36 36 37 38 38 38 37 37 37 38 40 43 45 47 50 50 51 53 53 57 68 70 62 58 57 55 57 56 49 46 44 41 39 39 40 38 37 36 32 28 24 19 17 15 14 16 15 12 9 9 7 7 7 6 5 5 5 5 5 4 4 3
25 23 21 24 29 33 39 46 45 40 37 35 33 29 25 22 22 23 24 26 28 30 33 36 36 36 36 37 38 38 38 38 39 40 42 44 47 49 51 52 53 55 56 58 59 58 66 74 68 60 59 58 58 56 50 47 48 46 43 42 40 38 36 35 31 25 20 16 13 13 14 15 13 10 8 8 7 7 6 5 5 5 5 5 4 4 4 3
23 22 26 32 36 42 47 46 41 36 35 33 30 26 23 22 24 26 27 29 32 35 36 37 36 36 38 38 39 40 40 41 44 48 51 52 53 53 55 56 58 61 62 62 63 60 63 71 68 59 55 57 61 60 56 54 53 52 49 45 41 35 30 29 28 23 19 15 10 10 15 16 13 9 8 8 7 6 6 5 5 4 4 4 4 4 4 3
23 26 34 40 44 47 47 41 37 35 34 30 27 23 22 24 26 28 31 33 35 36 36 37 37 38 40 42 43 44 45 48 52 56 56 54 55 56 58 62 63 66 65 63 63 62 62 66 70 64 57 57 65 66 58 53 51 53 55 53 48 41 33 28 27 23 19 15 10 8 12 17 14 9 8 8 6 6 5 4 4 4 4 4 3 4 3 3
28 35 42 45 48 47 42 37 36 35 31 27 24 23 24 28 30 33 35 36 36 36 37 38 39 42 48 54 57 54 53 57 60 59 56 55 56 58 60 63 66 66 65 64 63 63 63 66 70 68 62 62 67 63 53 48 48 51 52 49 44 38 32 27 22 21 19 17 14 11 12 17 16 9 8 8 6 6 5 4 4 4 4 4 3 4 3 3
36 43 47 48 48 43 37 36 36 33 28 25 23 25 29 32 35 36 36 36 37 38 38 39 43 50 58 65 68 65 63 64 63 59 58 57 57 57 58 60 62 62 63 63 62 60 62 65 67 66 63 62 63 60 56 54 52 51 46 40 34 30 27 21 15 15 18 20 20 16 14 16 15 10 8 8 6 6 5 4 4 3 3 4 4 4 3 3
45 49 50 48 45 40 37 37 34 29 26 25 25 29 33 36 37 36 36 37 38 39 40 43 49 57 63 68 73 75 71 66 61 59 59 57 54 55 56 57 60 61 61 62 61 59 58 61 67 67 68 74 73 63 57 55 48 44 43 39 35 33 29 23 17 14 17 22 22 17 14 15 14 10 8 7 6 5 5 4 4 3 3 4 4 4 3 3
50 51 49 46 42 38 36 34 30 26 25 27 29 33 36 37 37 37 38 39 39 40 43 48 55 61 67 71 76 76 70 64 62 61 61 57 53 54 56 58 62 63 63 63 63 61 57 59 62 61 66 85 96 85 74 73 70 68 69 62 53 50 41 32 29 23 18 23 24 16 11 12 12 9 8 7 5 5 4 4 3 3 3 4 4 4 3 3
52 50 47 44 39 36 34 31 27 26 28 30 33 36 37 36 36 38 40 40 40 42 47 54 63 68 71 73 73 69 65 65 65 64 64 60 55 54 57 60 64 66 66 67 67 64 61 61 61 56 53 64 78 76 69 74 81 87 88 75 63 61 53 45 43 31 18 22 24 16 10 10 10 8 7 6 5 4 4 3 3 3 3 4 3 3 4 3
52 49 45 41 37 34 32 29 27 28 31 33 35 36 36 36 37 39 40 41 44 47 52 59 67 72 74 72 69 67 66 68 69 69 70 66 59 56 59 61 64 68 70 70 71 70 66 65 65 62 56 54 60 57 49 52 62 72 76 66 61 68 64 55 50 31 15 18 20 15 11 8 8 8 6 5 4 3 3 3 3 4 3 4 4 4 4 3
51 47 42 38 35 33 29 27 29 32 32 34 35 35 36 38 40 40 42 45 49 53 57 63 69 74 74 71 70 73 75 76 78 79 79 76 68 63 63 64 66 72 76 77 77 76 72 70 70 70 67 66 67 60 50 49 52 59 63 55 57 75 73 57 47 30 17 17 15 12 11 8 7 7 5 4 4 3 3 3 3 4 3 3 4 3 4 4
50 44 40 37 34 30 28 29 31 32 32 34 35 36 39 41 41 43 47 50 53 56 61 67 72 74 73 72 75 82 87 91 92 92 91 87 80 71 67 68 70 77 82 82 81 79 75 73 75 77 76 76 76 67 55 50 49 53 55 48 60 87 81 54 39 28 18 17 13 9 10 7 6 6 4 4 4 3 3 3 2 3 3 3 3 3 4 4
47 41 38 36 32 28 29 31 31 31 32 34 36 39 41 42 44 48 51 52 56 60 66 73 77 76 75 77 80 84 91 98 101 99 94 90 83 76 70 70 74 79 83 83 81 80 79 77 77 79 79 80 80 70 55 50 49 50 51 51 70 95 86 53 33 23 17 17 13 8 8 7 6 6 5 4 4 3 3 3 3 3 3 3 3 3 3 3
43 39 37 33 30 29 31 31 31 32 33 35 39 41 42 45 49 51 53 56 62 67 72 79 81 80 79 80 81 82 84 87 90 89 86 83 79 76 72 71 73 76 81 83 83 83 83 81 80 79 79 81 81 69 54 50 51 50 51 57 69 87 88 63 33 18 16 15 13 9 8 8 7 6 6 4 4 4 3 2 3 3 3 3 3 3 3 3
40 37 35 30 29 30 31 31 30 31 34 38 41 43 45 49 51 53 58 64 73 79 83 84 83 82 82 82 82 82 81 81 81 81 80 79 79 76 73 71 71 75 80 84 86 86 84 81 79 76 74 77 79 70 56 50 54 56 55 57 59 68 79 64 31 15 14 11 10 10 7 7 7 6 5 5 4 4 3 2 3 3 3 3 3 3 3 3
39 36 31 29 30 31 30 30 30 33 37 41 42 45 49 50 52 60 69 75 82 89 90 86 82 82 84 83 82 84 86 87 85 83 81 81 80 78 74 72 72 76 82 87 88 88 83 76 72 68 63 65 69 66 54 46 52 58 52 46 47 49 55 52 30 16 16 12 7 8 6 5 7 5 4 5 4 4 3 2 3 3 3 3 3 3 3 3
37 33 29 29 31 30 30 30 31 36 40 42 45 49 50 52 60 71 79 81 86 94 94 86 83 83 85 88 91 94 96 96 92 90 87 84 81 78 75 74 75 78 83 88 89 87 80 70 64 60 53 51 54 55 50 44 47 53 43 34 36 32 32 40 31 13 13 15 9 7 7 6 6 5 4 5 5 4 3 2 3 3 3 3 3 3 3 3
Wind_Speed
37 36 34 33 32 31 31 32 32 33 34 35 36 37 37 38 39 39 39 40 41 42 44 45 45 47 47 48 48 50 51 49 47 46 46 46 46 46 47 48 49 50 51 52 54 56 57 58 60 62 64 66 68 69 71 72 73 74 75 75 76 76 76 76 75 75 75 75 77 78 77 76 75 75 74 73 73 73 73 73 74 75 76 76 75 74 74 75
36 36 35 34 33 33 33 33 34 35 36 37 38 39 40 41 42 43 44 44 45 46 47 48 48 48 49 50 51 50 50 49 48 47 47 48 48 48 49 50 51 53 54 55 57 59 61 62 63 65 67 69 70 70 70 70 70 69 67 67 67 66 66 66 65 65 65 65 67 67 66 65 63 63 64 64 65 65 64 65 66 67 67 67 65 64 64 65
37 37 36 36 35 34 34 35 35 36 38 39 40 41 43 44 45 46 47 48 48 49 50 51 51 50 51 52 52 50 48 48 48 49 49 50 50 51 52 53 54 55 57 58 60 62 63 65 66 67 67 67 66 64 63 60 59 57 55 55 55 55 55 54 54 55 54 54 55 56 56 55 53 54 56 56 57 59 57 57 58 58 59 59 58 57 57 58
36 37 37 37 36 36 37 38 38 39 40 41 42 44 45 46 47 48 49 50 51 51 52 52 52 52 53 53 51 49 48 48 49 49 50 51 52 53 54 55 57 58 60 61 63 64 65 66 65 63 61 59 56 53 51 48 46 45 44 44 45 45 44 44 44 44 44 44 45 47 47 46 47 48 49 48 49 52 53 51 51 53 54 55 55 55 54 55
36 36 37 37 37 38 39 39 40 41 42 43 44 45 47 48 49 50 51 52 53 53 52 52 52 52 52 51 50 49 49 49 49 50 51 52 53 55 56 58 60 61 63 64 64 64 62 60 56 53 50 47 45 43 41 39 38 37 37 37 38 38 37 37 36 37 37 38 39 40 41 41 43 45 45 44 45 48 49 49 49 50 51 52 54 54 54 54
36 36 37 37 38 39 40 41 41 42 43 44 45 47 48 49 50 52 53 53 53 52 51 51 50 50 49 49 49 49 49 49 50 51 52 54 55 57 59 61 62 63 63 62 59 56 52 49 45 42 40 38 37 36 35 34 33 33 33 33 34 34 34 34 34 34 35 36 36 37 38 39 41 44 44 44 44 45 46 47 48 49 49 50 52 53 55 55
36 37 37 38 39 40 41 42 43 44 45 46 47 49 50 51 51 52 52 51 50 49 48 47 47 48 48 49 49 49 49 50 52 53 54 56 58 60 61 62 62 60 57 53 48 44 41 38 36 34 34 33 33 33 32 32 32 32 32 32 32 33 33 34 34 35 35 36 37 37 38 38 41 43 44 44 45 45 45 47 48 48 49 49 51 53 54 55
36 37 38 40 41 42 43 43 45 46 47 48 49 50 50 50 49 48 47 46 45 45 45 46 47 48 48 48 49 50 51 52 53 55 57 58 60 60 59 57 54 49 45 40 37 34 32 31 31 30 30 31 31 31 31 31 31 32 32 32 32 32 33 33 35 36 37 39 40 40 40 40 42 45 46 46 47 47 47 48 50 50 51 51 52 54 56 57
36 38 39 40 41 42 44 44 45 46 47 48 48 47 46 44 43 42 42 42 43 44 46 47 47 47 48 49 50 51 52 54 56 57 58 58 56 54 50 45 41 37 33 31 29 28 28 28 29 29 29 30 31 31 31 31 31 32 33 34 34 34 35 35 36 38 40 42 44 45 43 42 44 47 48 48 49 49 50 51 53 54 55 55 56 57 59 61
37 38 39 41 42 43 44 44 44 45 44 44 42 41 39 39 39 39 40 42 44 45 46 47 47 48 48 50 51 53 54 55 55 54 52 49 45 41 36 32 29 28 27 26 26 27 27 27 28 29 30 31 31 32 33 33 34 34 34 36 37 38 38 39 40 41 43 46 48 50 49 46 47 49 51 51 52 53 53 54 56 57 59 60 61 62 63 65
37 38 39 40 41 41 41 41 39 38 37 36 36 36 36 37 39 40 42 43 44 45 46 46 47 48 50 51 53 53 52 50 47 43 39 34 31 28 26 25 24 24 24 25 26 27 27 28 29 30 31 33 34 35 36 37 38 39 39 40 41 42 44 44 45 46 48 50 54 57 55 52 51 53 55 56 56 57 58 59 61 62 64 65 66 66 67 69
35 36 36 36 36 35 35 34 33 32 32 33 34 35 37 38 40 41 42 43 44 45 46 47 49 50 50 50 49 46 42 37 33 29 25 23 22 22 22 22 23 24 24 25 27 28 29 30 32 33 35 37 38 40 41 42 43 44 45 45 46 46 48 49 50 51 53 55 58 62 63 59 56 56 59 61 62 63 64 65 67 68 69 70 71 72 72 73
30 30 30 30 30 30 30 30 30 31 32 34 35 37 38 39 40 41 42 43 44 46 46 47 47 45 43 41 36 32 27 24 21 20 19 19 20 21 22 22 23 25 26 27 29 31 33 34 36 38 40 41 42 43 44 45 46 47 48 50 50 51 52 53 55 56 57 59 61 65 68 65 61 61 63 66 68 69 69 70 72 73 75 76 77 78 78 79
27 27 27 27 28 28 29 30 31 32 33 34 36 37 38 39 40 41 42 43 43 43 42 40 37 33 30 27 23 19 17 16 17 18 19 20 21 22 23 24 26 27 29 31 33 35 37 38 40 41 43 44 45 45 46 48 49 50 51 53 55 56 57 58 60 61 62 64 65 68 71 69 66 67 68 70 72 74 75 76 77 78 80 81 83 84 85 85
25 25 26 27 27 28 29 30 31 32 33 34 35 36 37 38 38 38 38 37 36 33 30 27 23 20 18 16 15 14 15 16 17 18 20 21 22 24 26 28 29 31 33 35 36 38 39 41 42 43 45 46 47 49 50 51 52 54 55 57 59 60 62 63 64 66 67 70 71 72 74 72 70 72 74 75 76 78 79 80 81 83 84 85 87 89 90 91
24 25 25 26 27 28 29 30 31 32 33 33 34 33 33 32 30 29 27 25 23 20 17 14 13 12 12 13 14 14 16 17 18 20 22 24 25 27 29 31 33 35 36 38 39 40 42 43 45 46 48 49 51 52 54 55 56 58 59 61 63 64 65 67 68 70 72 74 76 77 78 77 76 77 79 80 81 82 83 84 86 87 88 89 91 93 94 96
23 24 25 25 26 27 28 29 29 29 29 28 26 24 22 20 18 16 14 12 11 9 9 10 10 11 13 14 15 16 18 20 21 24 26 27 29 30 32 33 35 37 39 40 42 43 45 47 48 50 52 53 55 57 58 59 60 62 63 64 66 68 68 69 71 73 76 78 79 81 82 81 80 82 83 84 85 86 87 88 90 91 91 93 94 96 97 99
22 22 23 24 24 24 24 24 23 21 19 16 13 10 9 7 7 6 6 7 7 8 9 10 11 13 15 16 18 20 21 23 25 26 28 30 31 33 34 36 38 41 42 44 46 47 49 50 52 53 55 56 57 59 60 61 62 63 65 66 68 71 72 72 73 75 77 80 83 84 85 85 85 86 87 88 89 90 91 92 93 94 95 96 97 98 100 101
17 17 18 18 17 17 16 14 12 9 5 2 2 3 4 5 6 7 8 8 8 9 11 13 15 17 19 20 22 23 24 25 27 28 30 32 34 36 38 40 42 44 46 48 49 50 51 53 54 55 57 58 59 60 61 63 64 65 66 68 69 70 73 75 76 77 78 80 84 85 86 87 88 89 90 91 92 93 94 95 96 97 98 99 100 101 102 103
11 10 10 9 8 7 5 4 3 4 5 7 8 8 8 8 8 8 9 9 11 13 14 16 17 19 21 22 23 24 26 27 29 32 34 36 38 40 42 43 45 46 48 49 50 51 53 54 55 57 58 60 61 63 64 65 66 67 68 69 70 70 72 75 76 78 79 79 82 84 85 86 88 89 90 91 93 94 95 96 97 98 99 100 101 101 102 103
7 6 6 6 7 7 8 9 10 10 10 11 11 10 10 9 9 10 11 13 14 15 16 17 18 20 22 23 25 27 29 31 33 35 37 39 40 42 43 45 46 47 48 50 51 53 54 55 57 58 60 61 63 64 65 66 67 67 68 68 70 70 70 73 75 77 78 79 80 82 82 83 85 86 87 89 90 92 93 94 96 97 98 100 100 101 101 103
12 12 12 13 13 13 13 13 13 12 11 11 10 10 10 10 10 11 12 13 14 15 17 18 20 22 24 26 28 30 32 34 36 37 39 40 42 43 44 46 47 48 50 51 53 55 56 57 59 60 61 62 63 64 65 66 66 66 66 67 68 69 68 69 72 75 77 77 79 81 81 82 83 84 86 88 90 91 92 93 94 96 98 99 99 99 99 100
18 18 18 17 16 16 15 14 13 12 11 10 10 10 10 10 10 11 12 13 15 17 19 21 23 25 27 29 30 32 34 36 37 38 39 40 42 44 45 48 50 51 52 54 55 56 57 58 58 59 59 60 60 61 62 64 65 65 65 66 67 69 69 68 70 74 78 80 82 84 85 85 86 88 90 92 94 96 97 97 98 99 100 101 101 101 101 101
21 21 19 18 17 16 15 13 12 11 10 10 9 9 10 10 11 13 14 16 18 20 22 24 25 27 29 31 33 34 35 36 37 39 40 42 44 46 48 49 51 52 53 54 54 55 55 55 56 56 56 57 58 59 61 64 67 68 69 70 71 73 74 75 75 76 79 82 86 88 88 88 90 91 94 96 98 100 102 102 103 104 104 105 105 105 105 104
21 20 18 17 16 14 13 12 10 9 9 9 9 10 10 12 13 15 17 19 21 22 24 26 28 29 31 32 34 34 36 37 39 41 43 44 45 47 48 49 50 51 51 52 52 52 53 54 56 57 58 59 60 62 64 66 68 71 72 73 75 76 77 79 80 80 81 83 87 91 91 90 90 93 95 98 100 102 104 106 107 108 108 108 108 108 108 108
19 18 16 15 13 12 11 10 9 9 10 10 10 12 13 15 16 18 20 21 23 25 27 28 30 31 32 33 34 35 37 39 41 42 43 44 45 45 45 46 47 49 50 52 53 54 56 58 59 61 62 63 65 67 68 68 69 70 72 74 75 77 78 79 80 81 81 82 86 90 92 91 90 92 95 98 101 103 105 108 109 110 110 111 111 111 112 112
17 15 14 12 11 11 10 10 10 10 11 13 14 15 17 18 19 20 22 23 25 27 28 29 30 31 33 34 36 37 39 40 40 41 41 41 42 43 45 46 48 50 52 54 55 57 59 60 62 63 65 66 67 67 68 68 68 69 71 72 73 74 75 76 77 78 79 80 83 88 91 91 90 90 94 97 100 103 105 108 109 110 111 112 112 113 113 113
14 13 12 12 11 11 12 12 13 15 16 17 17 18 19 20 21 22 23 24 26 27 28 30 31 33 34 36 37 37 37 38 38 39 41 42 43 46 47 49 51 52 54 56 58 60 61 61 62 63 64 66 67 66 67 67 68 68 70 70 71 72 73 74 76 77 78 78 82 87 90 91 89 89 93 97 99 102 104 106 108 109 110 111 112 112 112 113
13 13 13 13 13 14 15 16 17 17 17 18 19 20 21 22 23 23 24 25 27 29 30 31 33 34 35 35 35 35 35 36 38 40 42 44 46 48 49 51 53 54 56 58 59 60 59 59 60 61 62 64 66 67 67 67 67 68 68 69 71 72 72 74 75 76 77 77 79 86 90 92 91 89 92 97 99 101 103 105 106 107 108 109 109 109 110 110
14 14 14 15 16 16 17 17 17 18 19 20 21 23 24 24 23 24 26 27 29 30 31 32 33 33 33 33 33 34 36 39 41 43 44 46 47 49 50 52 54 57 58 58 57 57 58 58 59 60 60 61 63 66 67 66 67 67 67 66 67 69 70 72 73 74 74 72 74 81 87 91 93 91 92 96 98 99 100 101 102 102 102 103 103 104 104 105
14 15 15 15 16 17 17 18 19 20 22 23 24 25 24 23 24 26 28 29 30 31 31 32 32 32 32 33 35 38 40 42 43 44 45 45 46 47 47 48 50 52 55 56 57 56 57 58 58 58 59 58 59 62 64 65 66 66 67 67 66 66 66 67 69 71 72 71 73 79 84 88 92 93 93 95 96 97 98 97 97 96 97 98 98 98 99 99
14 14 15 15 16 17 18 20 22 23 24 25 25 23 22 24 27 29 30 30 31 31 31 31 31 32 34 36 38 39 40 41 41 41 40 41 41 41 42 42 44 45 48 52 55 56 56 57 57 57 57 57 56 57 60 62 64 66 67 70 71 70 68 67 68 69 70 70 73 79 82 85 88 91 93 95 96 96 97 96 95 95 95 94 94 94 94 94
14 14 15 17 18 19 21 22 23 23 24 24 23 23 24 28 30 30 30 30 30 30 31 31 33 35 37 38 38 39 39 39 39 38 39 39 41 42 43 44 45 46 47 49 52 54 55 55 56 56 56 57 57 57 58 60 63 66 69 72 74 76 75 73 73 73 72 69 70 75 79 81 84 86 89 92 92 93 93 92 92 91 91 90 89 89 89 90
14 16 17 19 20 21 22 23 23 24 24 24 25 26 28 30 30 30 30 30 30 31 32 33 35 36 36 36 37 37 38 39 39 40 40 42 43 44 45 46 46 47 48 49 51 54 55 55 56 57 58 58 59 60 61 62 63 65 69 72 75 78 80 80 80 81 81 77 74 77 79 81 83 85 86 87 87 88 87 85 85 85 85 85 84 85 86 87
17 19 20 21 22 23 23 23 24 25 26 27 29 30 29 30 30 30 30 30 31 32 32 33 34 34 34 35 36 37 39 40 41 42 43 44 45 46 46 46 47 47 48 48 50 52 57 59 58 59 60 60 60 62 62 63 65 65 68 71 73 77 80 81 81 83 86 84 82 81 81 83 87 88 87 86 85 84 83 81 81 81 79 78 79 80 82 82
22 22 22 23 24 24 24 26 27 27 29 31 32 30 29 30 29 29 29 30 31 32 32 32 33 33 35 36 38 39 39 41 42 44 45 46 47 48 48 48 48 48 48 49 49 49 53 59 61 60 61 61 62 63 64 64 66 67 68 70 73 76 80 83 83 83 86 86 83 83 81 84 90 89 87 86 84 83 83 82 81 79 78 77 78 79 79 79
23 23 23 24 24 25 27 28 28 29 32 33 31 29 29 29 28 29 30 31 31 31 31 32 33 35 36 37 38 39 40 42 44 46 48 49 50 51 51 51 50 51 50 50 51 50 50 56 60 60 60 62 63 65 66 67 68 70 71 72 74 75 78 82 85 86 87 87 84 82 83 87 93 93 90 89 88 88 88 86 83 80 79 77 76 77 77 77
23 23 24 25 25 27 29 29 30 32 34 31 28 28 28 28 29 30 30 30 31 31 32 33 35 36 37 37 38 40 42 45 47 50 52 53 54 54 54 54 53 53 53 53 53 53 51 53 58 60 60 62 65 67 68 69 71 72 74 76 78 78 78 81 86 89 91 92 87 82 85 91 96 96 94 94 93 92 91 88 84 80 78 76 73 73 74 74
24 24 24 25 28 30 30 30 32 34 32 28 26 27 28 29 30 30 29 30 31 32 33 35 36 36 38 39 40 42 45 48 50 53 55 57 58 58 57 57 56 56 56 56 56 56 55 56 59 62 62 64 67 69 69 70 71 73 75 77 78 81 81 82 85 90 93 95 91 86 87 94 99 97 95 95 93 93 92 88 83 80 76 73 70 70 70 70
24 24 25 28 30 30 31 34 34 31 27 25 26 28 30 30 29 29 30 31 32 33 34 35 36 38 40 43 45 47 49 51 54 57 59 60 60 60 59 59 59 59 59 60 60 59 60 61 62 64 65 67 69 71 71 72 73 74 76 77 78 80 81 81 81 86 92 97 97 95 93 96 101 98 95 95 94 93 92 87 82 77 73 68 66 67 69 68
24 26 28 30 31 33 35 35 30 26 25 26 27 29 30 29 29 30 31 32 33 34 35 36 38 41 44 46 48 50 52 54 57 60 61 62 62 62 62 61 62 63 63 64 63 63 64 65 66 67 68 70 72 74 75 76 76 77 78 79 80 81 83 83 82 84 91 96 99 100 97 97 101 99 96 96 94 93 91 86 80 74 68 64 63 65 67 66
25 28 30 32 34 36 35 30 25 25 26 28 29 30 29 28 29 30 31 32 33 35 36 38 41 44 46 48 50 52 54 57 59 61 62 63 64 64 64 65 66 67 67 67 67 67 67 69 71 72 74 76 77 78 78 78 77 78 80 81 82 83 85 88 89 88 91 95 97 98 95 95 100 100 97 95 92 90 88 83 77 70 65 62 61 63 65 65
27 30 32 34 35 35 32 26 25 27 28 29 29 29 28 28 29 30 32 33 35 37 39 41 44 46 48 49 50 53 55 58 61 62 64 66 67 68 69 69 70 71 71 71 72 72 72 74 75 76 77 78 79 79 80 80 80 81 82 83 85 87 88 91 93 94 95 96 99 99 94 93 97 97 95 93 90 88 85 79 72 65 60 60 60 61 62 62
29 31 33 34 35 33 28 26 27 28 29 29 28 28 28 28 29 31 33 34 37 40 42 45 47 48 49 50 52 54 56 60 62 65 67 69 70 71 72 73 74 75 75 76 76 77 78 80 82 82 81 80 81 82 82 83 85 86 87 88 89 91 93 95 96 98 96 94 98 102 97 92 94 95 93 91 88 84 80 73 68 63 58 56 57 58 60 60
31 33 34 35 33 30 26 26 28 28 28 27 27 27 27 28 30 32 35 37 40 43 45 47 48 49 50 52 54 56 59 62 66 68 70 72 73 74 75 76 76 78 79 79 80 81 82 84 87 89 90 90 90 91 91 91 91 92 93 93 94 95 96 98 99 101 98 94 96 102 100 94 93 93 91 88 85 81 74 68 65 63 59 56 55 56 58 59
32 34 35 34 31 27 26 27 28 27 26 26 26 27 28 30 32 35 38 40 43 45 47 48 49 50 52 54 57 60 63 66 68 71 72 74 75 77 77 78 78 79 81 82 82 84 85 86 88 91 93 94 96 97 97 97 96 96 96 96 97 98 98 100 102 104 103 98 95 98 101 97 93 92 90 87 84 80 74 66 62 59 57 55 53 53 55 58
33 35 34 31 28 26 26 27 26 25 25 26 27 28 30 32 35 37 40 43 45 47 49 49 50 51 53 56 59 63 66 68 70 72 74 75 77 78 79 79 80 81 81 83 84 85 86 87 88 90 92 93 94 96 97 97 97 97 97 97 98 98 98 99 103 105 105 102 97 95 97 98 94 93 93 91 88 83 76 67 61 57 54 52 50 50 53 56
34 34 32 29 26 26 26 25 24 24 25 26 27 29 32 34 37 40 43 45 47 49 50 51 52 53 55 58 60 63 65 68 70 72 74 75 77 79 81 81 81 82 82 84 85 86 87 88 88 90 92 93 94 96 97 97 97 97 97 97 97 98 98 100 102 104 103 102 100 96 96 98 97 95 94 92 91 85 75 65 59 56 55 53 52 51 52 55
34 33 30 27 25 25 25 24 24 25 26 27 29 31 34 37 40 42 45 47 49 50 52 53 55 57 58 60 61 63 64 66 68 71 73 75 77 79 81 82 82 83 84 85 86 87 87 88 89 89 92 93 93 96 98 98 97 97 97 97 96 96 98 100 102 102 99 99 101 100 98 98 98 95 92 91 89 84 73 63 59 58 56 54 53 52 52 54
34 31 27 25 24 24 24 23 24 26 27 28 30 33 36 39 41 44 46 48 50 52 55 56 58 59 60 62 63 65 67 69 70 72 74 77 78 80 81 83 84 85 86 86 87 87 88 89 90 90 92 94 94 96 99 99 98 98 97 95 94 94 95 98 102 102 99 98 99 100 100 98 97 94 91 90 90 86 74 64 60 59 56 53 52 51 52 52
31 27 24 24 24 23 23 24 25 26 28 30 32 36 38 40 42 45 47 49 52 55 58 59 60 61 63 64 66 69 71 73 75 77 78 79 80 81 83 84 85 86 86 86 86 87 88 90 91 91 93 95 97 97 99 99 98 97 97 95 94 93 92 95 102 105 104 103 100 99 99 98 96 93 88 87 90 88 75 64 59 57 56 53 50 48 49 50
28 24 23 23 23 23 23 24 25 27 29 32 35 37 39 41 44 46 48 51 54 57 59 60 61 63 65 67 70 73 75 77 79 81 82 82 83 84 85 86 87 87 87 87 87 87 89 91 93 94 95 97 98 99 101 101 98 97 98 98 97 96 94 95 101 104 105 106 104 101 99 98 96 93 86 82 86 89 79 67 60 56 52 52 51 48 46 47
Wind_Direction
227 230 234 239 242 245 249 253 255 259 263 267 271 274 277 279 281 283 284 286 287 288 289 289 290 290 291 292 293 294 293 291 290 290 290 289 289 289 289 289 288 288 287 286 286 285 285 284 284 284 284 284 283 283 283 283 282 282 281 281 280 279 278 277 277 275 274 274 274 275 275 275 275 277 277 275 274 272 272 271 270 269 269 269 269 269 268 268
229 233 236 240 244 248 252 256 259 262 265 268 271 274 277 280 282 284 285 287 288 290 290 290 290 290 291 293 293 292 291 290 290 291 290 290 291 291 290 289 289 289 289 288 288 287 287 287 287 286 286 286 286 286 286 286 285 285 284 283 281 280 279 279 278 277 276 276 276 277 277 277 278 278 276 275 274 273 272 271 270 270 271 270 269 268 267 267
231 235 238 242 246 250 254 257 260 263 266 269 271 274 276 279 281 283 284 286 288 289 290 290 290 291 292 291 291 290 289 289 291 292 292 293 293 292 292 291 291 291 290 290 289 289 289 289 289 290 290 289 289 289 289 289 289 289 288 287 285 284 283 283 281 281 280 279 278 279 279 280 279 277 275 274 275 274 273 272 273 273 272 271 270 268 267 266
233 236 240 244 248 252 255 259 262 264 267 269 272 274 276 277 279 282 284 285 286 286 287 287 288 289 289 289 289 288 289 290 291 292 292 293 293 293 293 293 292 291 291 291 291 291 292 292 292 293 293 292 292 293 293 293 294 294 293 291 290 289 288 288 286 285 283 282 281 281 282 282 281 278 277 278 278 277 277 276 275 274 274 274 273 271 269 267
235 238 242 246 249 253 256 259 262 265 268 270 273 274 276 278 279 281 282 283 284 284 284 285 285 286 286 286 287 287 289 290 290 291 292 292 293 293 293 293 292 292 292 293 293 294 294 294 295 295 294 295 296 297 298 299 300 299 298 296 295 295 295 294 292 291 289 289 288 288 288 288 286 284 284 283 281 280 281 281 279 277 277 277 277 277 275 273
238 241 244 248 251 254 257 260 263 266 268 271 273 275 276 278 279 280 281 281 282 282 282 282 283 284 285 286 286 287 289 290 291 291 292 293 293 293 293 293 293 293 294 294 295 295 296 296 296 297 298 300 302 304 306 307 307 307 306 306 305 305 305 305 302 300 298 297 295 293 293 291 289 288 287 286 284 283 283 282 281 281 280 280 280 279 279 278
241 244 248 251 254 257 259 262 264 266 269 271 272 274 276 277 278 279 279 279 279 280 281 282 283 284 285 286 287 289 290 291 292 292 293 293 293 293 294 294 294 294 295 295 296 297 298 299 301 304 306 308 310 311 313 313 314 314 313 313 312 311 310 309 307 304 301 298 295 293 292 291 289 288 287 287 286 285 285 284 283 283 282 282 281 279 278 278
244 247 250 253 256 258 261 263 265 267 268 270 272 274 276 276 276 276 276 278 279 281 282 282 283 284 285 287 289 291 292 292 293 293 294 294 294 294 294 294 294 295 297 298 300 302 304 307 309 311 312 312 313 315 314 314 315 314 313 311 310 308 306 304 302 300 298 295 293 291 290 289 288 287 286 286 287 287 287 286 285 284 282 280 279 277 277 276
247 249 252 254 257 259 262 264 266 267 269 270 272 273 273 273 273 274 276 278 280 281 282 283 284 286 288 289 291 292 293 293 293 294 294 294 294 294 294 295 297 300 303 307 309 311 312 313 314 315 314 314 314 313 312 311 310 309 307 306 304 302 300 298 296 295 293 291 289 288 287 286 285 284 284 285 286 286 286 285 284 283 281 278 276 275 274 273
248 251 253 256 258 260 262 264 266 267 268 269 269 269 270 271 273 275 277 278 279 281 282 284 286 288 290 291 292 293 293 294 294 295 295 295 295 296 298 302 307 311 314 316 316 316 316 316 315 314 313 311 310 308 307 305 303 302 301 299 298 297 295 294 292 291 289 288 286 284 284 283 282 283 283 283 283 283 282 281 279 278 277 275 274 273 272 272
250 253 255 257 258 260 262 263 264 264 264 264 266 268 270 273 275 276 278 279 281 283 285 287 289 290 291 292 293 294 295 295 296 296 297 298 301 305 310 315 318 319 318 318 317 316 315 314 311 310 308 306 304 303 302 302 301 301 300 299 297 296 294 293 291 289 288 286 285 284 284 283 283 283 283 283 282 280 279 277 276 275 274 273 272 271 271 270
249 251 253 254 255 256 256 257 257 259 261 264 267 270 272 274 276 278 279 281 284 285 287 289 291 292 293 294 295 296 297 298 298 300 304 308 314 317 319 320 320 319 318 316 314 312 310 308 306 305 304 304 304 304 304 304 303 302 301 299 297 295 293 292 290 288 287 286 285 285 286 286 285 283 283 282 281 279 277 276 275 275 274 273 273 272 271 270
242 244 245 246 247 248 251 253 257 260 264 267 270 272 274 276 278 280 282 284 286 288 290 291 293 295 296 297 298 299 301 304 308 312 318 320 321 321 320 319 318 316 313 311 309 308 307 306 305 305 305 305 304 303 302 301 300 298 297 296 294 292 289 288 287 285 284 283 282 283 284 285 285 282 280 280 279 278 277 276 275 275 275 274 274 273 272 271
234 237 239 242 245 249 253 258 261 265 268 270 272 274 276 279 281 284 286 288 289 291 293 295 297 299 300 301 303 308 313 319 323 325 325 324 322 320 318 316 313 311 310 309 308 307 307 305 304 303 302 301 299 298 296 295 294 293 292 291 290 289 288 286 285 285 284 283 281 280 281 282 282 281 279 277 277 277 276 276 275 274 274 274 274 274 274 273
235 239 243 247 251 255 259 263 266 268 270 272 275 277 280 283 285 287 289 291 294 296 299 301 304 307 310 314 319 325 330 332 330 327 324 321 318 315 314 313 311 310 309 308 306 304 302 300 299 297 296 295 294 294 293 292 291 291 290 290 289 289 288 287 286 286 285 284 283 282 281 281 281 279 278 277 276 275 275 274 274 273 273 273 272 273 272 272
241 245 249 253 257 260 263 265 268 270 273 276 279 282 285 287 290 293 297 300 302 305 310 316 322 329 333 334 336 336 335 331 327 322 319 316 315 313 312 311 309 307 305 302 300 298 296 295 294 294 293 293 293 293 292 292 291 290 290 290 290 289 289 289 288 287 287 286 285 284 283 283 282 281 280 279 278 277 276 275 274 274 273 272 272 272 272 272
247 251 254 258 261 263 266 268 271 274 277 279 282 286 291 296 302 306 310 315 321 331 341 346 347 346 343 340 338 335 329 325 322 320 317 315 312 309 307 304 302 300 298 297 296 295 295 295 294 294 295 295 295 295 295 294 294 293 293 292 292 291 290 290 290 290 289 288 287 286 285 285 284 283 282 281 280 279 278 277 276 275 275 274 273 273 273 272
252 256 258 261 264 266 268 270 272 274 276 280 287 297 308 320 332 342 355 3 6 7 3 356 349 344 340 336 333 330 325 322 319 316 312 309 306 303 301 299 299 298 297 297 297 297 297 297 296 296 296 296 296 295 295 295 294 294 294 294 294 293 293 292 291 291 290 290 289 288 288 287 287 286 285 284 283 282 281 280 279 278 277 277 276 275 274 274
252 255 256 259 261 261 262 263 263 264 266 286 9 38 47 51 47 40 32 24 14 5 356 349 345 340 336 332 328 324 320 315 311 307 305 302 301 299 299 299 299 299 299 299 299 299 299 299 298 298 297 297 296 296 295 294 294 293 293 292 292 291 291 291 290 289 288 288 287 287 288 288 288 287 287 286 285 284 283 283 282 281 280 279 278 277 276 276
237 238 240 240 239 236 228 210 179 141 117 102 93 83 73 64 54 41 25 12 3 356 349 343 337 332 327 322 318 314 311 307 305 303 302 301 301 301 301 301 301 301 301 301 301 301 300 300 299 298 298 297 296 295 294 293 293 292 291 291 290 289 289 289 289 289 288 287 287 287 287 288 288 288 288 287 287 286 285 285 284 283 282 281 280 279 279 278
173 167 161 153 143 135 129 123 117 112 107 99 88 76 64 52 38 24 10 360 354 346 338 331 324 317 313 311 309 307 306 305 304 305 305 305 305 305 305 304 304 303 303 302 301 300 300 299 298 297 297 296 295 294 294 293 292 292 292 292 291 291 291 291 290 290 290 289 288 288 288 287 287 287 287 286 286 286 285 285 284 283 283 282 281 280 280 279
127 126 125 124 121 119 116 112 108 101 93 84 72 59 46 31 19 7 354 345 338 330 323 318 314 310 309 309 308 308 309 309 310 310 309 309 309 308 307 306 304 303 302 301 300 299 299 298 298 298 297 297 297 297 296 296 295 294 294 294 293 293 292 292 293 293 292 292 291 291 291 291 290 290 290 289 289 288 287 286 285 285 284 284 283 282 281 280
119 118 116 114 112 108 103 97 89 82 73 63 53 42 27 13 0 345 335 327 320 316 314 313 313 312 311 312 312 313 314 314 314 313 311 310 308 306 305 304 303 302 302 302 301 301 301 301 301 300 300 299 299 299 298 298 298 297 297 298 298 297 297 297 296 297 297 297 296 295 295 295 295 295 295 294 293 292 291 291 290 289 289 288 287 286 285 284
114 111 108 104 99 93 87 79 71 64 55 46 35 22 6 352 339 328 323 318 314 313 314 315 315 315 316 317 318 317 317 315 313 311 308 307 306 306 305 305 305 305 305 304 304 304 304 303 303 302 301 301 301 301 302 303 304 305 305 305 304 303 302 302 301 299 298 298 298 297 296 296 296 295 294 293 292 292 292 292 291 291 290 290 290 289 289 288
105 101 97 92 87 81 76 68 59 48 35 24 13 358 343 333 327 323 320 318 317 317 318 320 321 322 322 321 320 317 315 312 310 309 309 309 309 308 308 308 308 308 307 307 307 307 307 307 307 307 307 306 307 307 308 309 309 309 308 307 305 304 303 302 301 300 298 296 296 296 295 294 294 292 291 290 290 290 290 290 290 290 290 291 291 291 291 290
97 93 89 85 79 71 61 51 38 25 14 3 353 342 335 331 327 325 324 324 325 326 328 329 328 327 324 320 317 315 313 312 312 313 312 312 311 310 311 311 312 312 312 313 313 313 313 312 313 312 312 312 312 312 312 311 309 308 306 304 303 302 301 300 298 297 296 295 294 293 293 293 292 291 290 289 289 289 289 289 290 290 291 291 291 291 291 291
93 88 82 73 63 52 41 30 18 8 1 354 348 343 338 334 330 330 329 329 331 333 333 331 328 325 321 318 316 316 316 316 316 314 313 313 314 315 316 317 317 318 317 317 317 316 316 316 316 315 315 314 313 312 310 308 306 304 302 301 300 300 299 298 297 296 295 294 293 293 293 292 292 291 290 290 290 290 290 290 290 291 291 291 291 291 291 291
84 75 64 53 42 32 22 15 8 2 358 352 347 341 337 334 333 334 333 333 335 335 332 329 324 321 319 318 319 319 319 318 318 319 320 322 323 324 323 322 321 320 319 319 319 319 318 318 317 316 315 313 311 309 307 306 305 303 302 302 300 300 299 299 298 297 297 297 296 295 295 294 295 294 293 293 292 292 292 291 292 292 292 292 292 292 292 292
64 53 44 34 25 19 13 8 3 358 352 347 342 339 337 338 338 337 336 336 337 334 330 326 323 322 322 323 323 323 322 322 324 327 329 329 328 327 326 324 323 323 322 322 321 321 320 319 317 316 314 313 312 310 309 307 306 305 304 304 303 302 302 301 301 300 300 300 299 298 298 297 298 297 294 294 295 294 293 293 293 293 293 293 292 292 291 290
44 35 28 22 17 13 8 2 356 351 347 345 344 343 343 342 338 337 339 338 335 331 328 326 325 326 326 326 326 326 328 331 333 334 334 332 331 330 329 329 329 328 325 323 322 321 320 318 316 315 314 314 313 312 310 310 308 307 306 306 305 305 305 304 303 302 301 300 298 297 298 297 298 297 295 294 294 293 293 293 292 292 292 292 292 291 290 288
32 26 21 16 12 7 1 356 352 351 350 349 348 348 343 337 335 339 339 335 331 330 329 329 330 330 331 332 334 336 338 338 338 338 336 335 334 333 334 333 331 329 327 325 322 319 317 316 316 315 315 315 315 313 313 312 311 310 309 307 306 304 302 301 300 299 299 298 295 294 295 295 296 297 297 295 295 295 294 294 295 295 294 293 292 291 290 289
24 20 16 11 7 1 357 355 354 354 352 352 351 344 336 335 339 340 336 332 332 333 334 335 337 338 340 341 342 342 342 340 339 338 336 334 333 330 328 326 324 324 325 325 323 321 321 321 321 320 319 317 316 314 314 313 312 311 309 306 304 301 299 296 295 295 295 295 295 295 296 297 297 299 299 298 299 299 299 299 299 297 296 294 292 290 289 288
18 14 10 7 3 359 358 357 355 354 353 352 344 334 336 341 340 336 334 336 338 339 341 343 345 346 346 346 345 343 342 341 340 337 335 333 331 329 328 328 329 329 329 329 329 328 327 326 324 322 320 319 317 314 312 311 309 309 308 307 306 305 304 304 302 301 300 300 300 300 301 301 301 301 299 299 300 300 300 300 300 298 296 294 293 293 291 289
12 9 7 4 1 360 359 357 355 354 352 346 338 338 343 341 336 336 340 344 346 348 350 351 351 351 350 348 345 344 344 342 341 339 338 337 336 336 336 336 336 336 335 335 334 332 328 325 324 322 322 322 321 319 318 317 316 315 315 314 314 314 313 313 313 312 310 309 308 308 308 307 305 303 301 302 303 303 303 302 301 299 298 297 296 295 294 292
8 7 4 2 2 0 358 357 357 355 348 344 347 349 344 338 340 346 350 352 354 356 355 355 354 352 349 347 347 347 346 345 344 343 343 343 343 342 341 340 339 338 337 337 336 335 332 328 327 326 326 327 327 325 325 324 323 322 321 320 320 319 318 318 318 317 315 315 315 314 314 313 310 308 308 308 309 308 308 306 303 302 300 300 300 298 296 295
7 5 2 3 3 359 359 0 358 351 348 352 356 352 343 344 351 355 357 359 359 359 358 357 355 352 351 350 350 350 350 350 351 350 351 351 349 347 345 344 342 340 339 338 337 338 336 332 331 332 332 332 332 330 329 329 328 327 326 325 324 324 323 321 320 319 317 317 317 317 318 317 313 312 314 314 314 314 312 310 308 307 307 306 305 304 303 301
5 1 2 4 2 0 3 0 353 350 354 359 358 350 348 354 360 1 2 3 2 1 0 358 356 355 355 355 355 356 356 357 358 358 358 356 354 352 350 347 345 343 343 342 341 341 341 337 334 335 336 336 335 334 334 334 334 332 331 329 327 326 325 324 322 320 319 318 319 321 323 321 317 318 321 321 320 319 315 313 312 312 312 311 310 309 306 303
2 1 5 4 1 4 3 354 351 355 1 2 356 350 355 3 6 7 7 5 4 3 1 360 359 360 0 0 0 1 2 2 2 1 360 358 356 354 352 350 349 347 346 345 345 344 344 342 338 337 339 339 339 339 339 339 338 337 334 332 330 328 327 326 324 323 322 321 323 326 328 325 322 323 325 324 323 320 316 315 315 315 315 314 313 310 304 301
2 4 6 3 4 5 357 351 357 3 4 1 354 355 4 10 10 10 8 7 6 4 4 4 4 4 4 4 4 4 4 3 2 1 359 358 357 356 355 353 351 350 349 348 348 347 346 346 344 343 343 342 342 343 342 341 340 339 337 334 332 330 330 329 327 326 324 323 326 330 332 328 325 326 326 324 322 319 317 316 317 318 317 316 314 308 301 298
3 6 6 4 6 0 352 357 6 7 2 356 356 5 12 14 13 11 9 8 7 7 8 8 8 8 8 7 6 5 5 3 1 359 358 358 357 357 356 355 353 352 352 351 351 351 350 349 349 348 347 346 344 344 343 342 341 340 337 335 333 332 330 329 328 328 326 327 330 333 334 330 325 325 326 324 322 320 317 318 319 320 319 317 313 305 300 299
4 6 6 5 2 356 357 8 10 1 357 359 6 15 18 17 15 12 10 10 10 11 11 12 11 11 10 9 7 5 3 2 360 359 358 358 358 358 357 356 354 354 353 353 353 353 353 351 351 351 350 348 346 346 346 345 343 341 338 336 334 333 331 330 330 331 330 331 332 332 332 330 325 326 327 325 323 321 319 319 321 321 321 318 312 306 302 301
5 7 5 3 360 359 6 12 4 358 4 10 16 21 20 18 15 12 12 12 13 14 13 13 13 12 11 9 7 3 1 0 360 359 359 359 359 359 358 357 356 355 355 354 354 354 354 353 353 354 353 351 349 349 348 346 343 341 339 337 336 335 334 333 334 334 334 334 332 330 331 330 326 326 327 325 323 321 320 322 324 324 323 318 312 308 305 304
7 6 4 2 1 3 9 8 2 7 14 18 22 24 22 18 15 13 15 16 16 15 14 13 13 11 10 7 5 2 1 0 0 1 0 360 0 0 359 359 358 357 356 356 356 355 355 354 354 355 355 353 350 349 348 346 344 343 342 340 339 339 338 337 336 335 335 335 332 329 332 331 327 326 327 325 324 323 323 325 326 326 323 318 313 310 307 306
7 5 2 1 2 5 9 8 9 17 21 23 26 25 21 17 15 16 18 18 17 15 14 13 12 10 7 5 4 2 2 2 1 1 0 360 0 0 360 359 358 358 357 357 357 357 357 356 354 354 355 353 350 349 349 348 346 345 344 343 342 342 341 339 336 334 335 336 332 329 331 332 329 328 328 327 325 324 326 328 328 327 324 318 315 313 310 309
6 3 1 2 4 8 11 12 17 23 24 26 27 23 19 17 18 19 20 18 17 15 14 12 10 8 6 4 4 4 3 3 2 1 0 359 360 360 359 359 358 358 358 358 358 358 358 358 355 354 354 353 351 350 350 350 348 346 345 344 344 343 342 339 336 333 335 337 334 330 331 332 331 331 330 328 326 326 329 332 332 329 325 322 320 317 314 311
4 1 2 4 7 10 14 19 24 27 26 26 24 20 19 20 21 22 20 18 16 14 13 11 9 8 7 6 6 5 3 3 2 1 0 359 359 359 359 358 358 358 358 358 359 358 358 359 357 355 354 353 352 350 350 350 349 347 345 345 344 344 342 339 335 333 335 337 336 333 332 333 334 333 333 331 329 329 332 335 334 330 326 323 322 319 315 312
2 2 4 7 9 14 20 25 28 27 25 25 23 21 22 23 23 22 20 17 15 13 13 12 11 10 9 8 7 5 3 2 1 1 360 359 358 357 358 358 358 358 358 358 358 358 358 359 358 355 354 353 351 350 350 350 348 347 345 345 345 343 340 338 335 334 335 336 336 335 334 334 336 337 336 334 332 332 335 337 335 331 326 324 323 321 317 314
2 3 6 8 13 19 25 28 28 26 25 25 24 23 24 25 23 21 18 17 16 15 14 14 12 11 10 8 6 5 4 2 1 0 360 359 358 357 357 358 358 358 358 358 358 358 357 357 357 356 353 352 352 350 349 350 348 347 346 346 345 341 339 338 335 334 336 335 335 338 338 337 338 339 339 336 333 332 335 337 335 332 329 328 326 324 321 317
2 5 8 12 19 24 28 29 26 26 26 25 25 25 26 24 21 20 19 18 18 17 16 14 12 11 9 7 5 4 3 3 2 1 0 360 359 358 358 358 358 358 358 358 357 357 357 356 356 356 353 352 351 350 349 350 348 347 346 346 344 341 339 338 335 334 336 337 337 339 340 339 340 340 340 337 332 331 335 338 337 334 333 332 329 326 324 321
4 8 12 18 23 27 29 28 26 27 27 26 27 27 26 22 21 21 20 19 18 17 16 14 12 10 9 7 5 4 3 3 2 2 1 1 360 359 358 358 358 358 357 357 357 356 355 355 355 355 353 352 351 350 349 349 349 347 346 345 343 341 340 337 334 335 339 340 340 341 341 341 340 341 341 338 333 332 336 340 338 336 335 334 332 329 326 323
7 11 15 21 26 29 29 27 27 28 28 29 29 27 24 22 22 22 21 19 18 17 16 14 12 11 10 8 7 7 6 5 4 3 3 2 1 360 359 358 358 358 357 356 356 355 354 353 353 354 353 351 351 350 349 349 349 347 344 343 342 340 340 339 336 337 340 342 343 344 343 341 341 341 342 341 335 331 334 339 339 338 337 335 333 330 327 324
11 14 19 25 29 29 29 28 28 30 30 30 29 26 23 22 22 21 19 18 18 17 15 14 13 13 12 11 10 9 8 6 5 4 3 3 2 0 359 359 358 358 357 355 354 353 352 352 351 352 352 351 350 350 349 349 349 346 344 344 343 341 342 342 340 340 342 343 343 344 343 341 341 341 343 344 337 332 333 338 340 339 339 337 333 331 328 325